Location: Bergnershof
(48.9468°N, 10.9431°E)
Time: 05:03:54
(UTC+00:00)

Cosmos 2341 Rocket - Pass Details

Date: 03 March 2021
Orbit: 968 x 1005 km, 82.9° (Epoch: 11 April)

Event Time Altitude Azimuth Distance (km) Brightness Sun altitude
Rises 18:29:34 0° 178° (S) 3,698 6.9 -15.0°
Reaches altitude 10° 18:32:06 10° 176° (S) 2,748 6.2 -15.4°
Maximum altitude 18:38:21 68° 95° (E) 1,056 3.9 -16.4°
Drops below altitude 10° 18:44:34 10° 14° (NNE) 2,741 6.3 -17.4°
Sets 18:47:06 0° 12° (NNE) 3,688 7.0 -17.8°
